Earth resources
NORAD ID: 25397
Int'l Code: 1998-043D
Perigee: 820.9 km
Apogee: 821.6 km
Inclination: 98.4 °
Period: 101.2 minutes
Semi major axis: 7192 km
Launch date: July 10, 1998
Source: Israel (ISRA)
Comments: In February 2004 all scientific investigations were completed and the satellite was turned over to amateur radio completely with 90% of power intact.
Two Line Element Set (TLE):
1 25397U 98043D 13165.94222713 .00000002 00000-0 19373-4 0 963
2 25397 098.4138 133.7978 0000485 021.1607 048.5228 14.23344787775622
Source: AFSPC
NASA's NSSDC Master Catalog entry for TECHSAT 1B